Retour au catalogue

COSMOS 2251 DEB

ActifLEO
NORAD 35586·DEBRIS·🇷🇺 Russia

Lancé Jun 16, 1993 depuis Plesetsk Cosmodrome

Loading…

Prochains Passages (prochaines 24 heures)

TLE

VieillissantSource: Space-Track

Époque: Sep 9, 2026, 04:46 UTC

1 35586U 93036AMD 26252.19928096  .00000371  00000-0  35564-3 0  9996
2 35586  74.0213 229.1125 0401767  47.4591 328.9021 13.52342349640385

Suivez COSMOS 2251 DEB en temps réel avec AllMySat

Download on the App Store